This is the latest recevied weather packets stored in our database for station/object KM8ICE-10. If no packets are shown the sender has not sent any weather packets the latest 10 day(s).
| Time | Temp. | Humidity | Pressure | Rain* | Wind** | Luminosity | Snow |
|---|---|---|---|---|---|---|---|
| 1777482007 | 15° C | 90% | 1013.7 hPa | 0 mm | - | - | - |
| 1777481408 | 15° C | 88% | 1013.5 hPa | 0 mm | - | - | - |
| 1777480809 | 15° C | 91% | 1013.3 hPa | 0.25 mm | - | - | - |
| 1777480208 | 15° C | 95% | 1013.5 hPa | 0.25 mm | - | - | - |
| 1777479608 | 15° C | 95% | 1013.4 hPa | 0.25 mm | - | - | - |
| 1777479008 | 14.44° C | 96% | 1013.3 hPa | 0.51 mm | - | - | - |
| 1777478407 | 14.44° C | 97% | 1013.1 hPa | 0.76 mm | - | - | - |
| 1777477807 | 14.44° C | 97% | 1013.2 hPa | 0.76 mm | - | - | - |
| 1777477207 | 14.44° C | 97% | 1012.9 hPa | 0.51 mm | - | - | - |
| 1777476608 | 15° C | 97% | 1012.7 hPa | 0.76 mm | - | - | - |
| 1777476007 | 15° C | 97% | 1012.5 hPa | 0.76 mm | - | - | - |
| 1777475408 | 15° C | 97% | 1012.5 hPa | 0.51 mm | - | - | - |
| 1777474807 | 15° C | 97% | 1012.3 hPa | 0.25 mm | - | - | - |
| 1777474208 | 15° C | 97% | 1012 hPa | 0.25 mm | - | - | - |
| 1777473607 | 15° C | 97% | 1011.9 hPa | 0.51 mm | - | - | - |
| 1777473008 | 15.56° C | 96% | 1012 hPa | 0.25 mm | - | - | - |
| 1777467007 | 16.11° C | 98% | 1011.9 hPa | 2.03 mm | - | - | - |
| 1777466407 | 16.11° C | 98% | 1011.8 hPa | 2.03 mm | - | - | - |
| 1777465807 | 16.11° C | 98% | 1011.7 hPa | 1.78 mm | - | - | - |
| 1777465208 | 16.67° C | 98% | 1012 hPa | 2.03 mm | - | - | - |
| 1777464607 | 16.67° C | 98% | 1012.1 hPa | 1.02 mm | - | - | - |
| 1777464007 | 16.67° C | 98% | 1012.2 hPa | 0.51 mm | - | - | - |
| 1777463407 | 16.67° C | 98% | 1012 hPa | 0.25 mm | - | - | - |
| 1777462807 | 16.11° C | 98% | 1012.1 hPa | 0.25 mm | - | - | - |
| 1777462207 | 16.11° C | 98% | 1012 hPa | 0.51 mm | - | - | - |
* Rain latest hour (hover to see other rain measurements)
** Current wind speed in m/s (hover to see current wind gust speed)